TimeSAST,TemperatureF,Dew PointF,Humidity,Sea Level PressureIn,VisibilityMPH,Wind Direction,Wind SpeedMPH,Gust SpeedMPH,PrecipitationIn,Events,Conditions,WindDirDegrees,DateUTC
12:00 AM,60.8,46.4,59,30.01,6.2,West,16.1,-,N/A,,Partly Cloudy,260,2013-01-03 22:00:00
1:00 AM,59.0,46.4,63,30.01,6.2,WNW,10.4,-,N/A,,Partly Cloudy,300,2013-01-03 23:00:00
2:00 AM,61,48,51,30.01,12,WNW,11.5,,,,,300,2013-01-04 00:00:00
2:00 AM,60.8,48.2,63,30.01,6.2,WNW,10.4,-,N/A,,Mostly Cloudy,300,2013-01-04 00:00:00
3:00 AM,60.8,48.2,63,30.01,6.2,West,10.4,-,N/A,,Mostly Cloudy,280,2013-01-04 01:00:00
4:00 AM,60.8,50.0,68,30.01,6.2,WSW,12.7,-,N/A,,Mostly Cloudy,250,2013-01-04 02:00:00
5:00 AM,60,51,63,30.01,12,WNW,13.8,,,,Mostly Cloudy,290,2013-01-04 03:00:00
5:00 AM,60.8,50.0,68,30.01,6.2,WNW,12.7,-,N/A,,Mostly Cloudy,290,2013-01-04 03:00:00
6:00 AM,60.8,50.0,68,30.04,6.2,WNW,9.2,-,N/A,,Mostly Cloudy,300,2013-01-04 04:00:00
7:00 AM,60.8,50.0,68,30.04,6.2,West,18.4,-,N/A,,Mostly Cloudy,260,2013-01-04 05:00:00
8:00 AM,63,51,56,30.06,12,WNW,10.4,,,,Mostly Cloudy,300,2013-01-04 06:00:00
8:00 AM,62.6,51.8,68,30.06,6.2,WNW,10.4,-,N/A,,Mostly Cloudy,290,2013-01-04 06:00:00
9:00 AM,62.6,53.6,72,30.06,6.2,WSW,11.5,-,N/A,,Mostly Cloudy,250,2013-01-04 07:00:00
10:00 AM,64.4,53.6,68,30.06,6.2,West,12.7,-,N/A,,Mostly Cloudy,280,2013-01-04 08:00:00
11:00 AM,65,51,52,30.09,12,SW,13.8,,,,Mostly Cloudy,230,2013-01-04 09:00:00
11:00 AM,64.4,50.0,59,30.09,6.2,SW,13.8,-,N/A,,Mostly Cloudy,230,2013-01-04 09:00:00
12:00 PM,66.2,50.0,56,30.09,6.2,SSW,15.0,-,N/A,,Mostly Cloudy,200,2013-01-04 10:00:00
1:00 PM,68.0,50.0,52,30.09,6.2,SSW,12.7,-,N/A,,Mostly Cloudy,210,2013-01-04 11:00:00
2:00 PM,69,48,37,30.12,12,SSW,11.5,,,,Mostly Cloudy,210,2013-01-04 12:00:00
2:00 PM,68.0,50.0,52,30.09,6.2,SSW,11.5,-,N/A,,Mostly Cloudy,210,2013-01-04 12:00:00
3:00 PM,68.0,50.0,52,30.09,6.2,South,9.2,-,N/A,,Mostly Cloudy,180,2013-01-04 13:00:00
4:00 PM,68.0,51.8,56,30.09,6.2,SSE,9.2,-,N/A,,Scattered Clouds,150,2013-01-04 14:00:00
5:00 PM,66,52,50,30.10,12,SSE,9.2,,,,Scattered Clouds,160,2013-01-04 15:00:00
5:00 PM,66.2,51.8,60,30.09,6.2,SSE,9.2,-,N/A,,Partly Cloudy,160,2013-01-04 15:00:00
6:00 PM,66.2,51.8,60,30.09,6.2,South,4.6,-,N/A,,Partly Cloudy,170,2013-01-04 16:00:00
7:00 PM,64.4,51.8,64,30.09,6.2,SSE,4.6,-,N/A,,Partly Cloudy,160,2013-01-04 17:00:00
8:00 PM,60.8,51.8,72,30.09,6.2,SSE,4.6,-,N/A,,Partly Cloudy,150,2013-01-04 18:00:00
9:00 PM,59.0,51.8,77,30.12,-9999.0,NNE,2.3,-,N/A,,Clear,30,2013-01-04 19:00:00
10:00 PM,59.0,51.8,77,30.12,-9999.0,North,2.3,-,N/A,,Clear,360,2013-01-04 20:00:00
11:00 PM,55.4,51.8,88,30.12,-9999.0,NNW,2.3,-,N/A,,Clear,330,2013-01-04 21:00:00